TimeEST,TemperatureF,Dew PointF,Humidity,Sea Level PressureIn,VisibilityMPH,Wind Direction,Wind SpeedMPH,Gust SpeedMPH,PrecipitationIn,Events,Conditions,WindDirDegrees,DateUTC
12:15 AM,42.8,33.8,70,30.10,10.0,Calm,Calm,-,N/A,,Clear,0,2014-02-23 05:15:00
12:35 AM,42.8,33.8,70,30.10,10.0,Calm,Calm,-,N/A,,Clear,0,2014-02-23 05:35:00
12:55 AM,42.8,32.0,66,30.09,10.0,Calm,Calm,-,N/A,,Clear,0,2014-02-23 05:55:00
1:15 AM,42.8,33.8,70,30.09,10.0,Calm,Calm,-,N/A,,Clear,0,2014-02-23 06:15:00
1:35 AM,42.8,33.8,70,30.09,10.0,Calm,Calm,-,N/A,,Clear,0,2014-02-23 06:35:00
1:55 AM,41.0,33.8,76,30.09,10.0,Calm,Calm,-,N/A,,Clear,0,2014-02-23 06:55:00
2:15 AM,41.0,33.8,76,30.08,10.0,Calm,Calm,-,N/A,,Clear,0,2014-02-23 07:15:00
2:35 AM,41.0,33.8,76,30.08,10.0,Calm,Calm,-,N/A,,Clear,0,2014-02-23 07:35:00
2:55 AM,41.0,32.0,70,30.07,10.0,Calm,Calm,-,N/A,,Clear,0,2014-02-23 07:55:00
3:15 AM,41.0,32.0,70,30.07,10.0,Calm,Calm,-,N/A,,Clear,0,2014-02-23 08:15:00
3:35 AM,39.2,33.8,81,30.07,10.0,Calm,Calm,-,N/A,,Clear,0,2014-02-23 08:35:00
3:55 AM,37.4,33.8,87,30.07,10.0,Calm,Calm,-,N/A,,Clear,0,2014-02-23 08:55:00
4:15 AM,39.2,33.8,81,30.07,10.0,Calm,Calm,-,N/A,,Clear,0,2014-02-23 09:15:00
4:35 AM,37.4,35.6,93,30.07,10.0,Calm,Calm,-,N/A,,Clear,0,2014-02-23 09:35:00
4:55 AM,41.0,33.8,76,30.07,10.0,Calm,Calm,-,N/A,,Clear,0,2014-02-23 09:55:00
5:15 AM,41.0,33.8,76,30.07,10.0,Calm,Calm,-,N/A,,Clear,0,2014-02-23 10:15:00
5:35 AM,39.2,33.8,81,30.07,10.0,Calm,Calm,-,N/A,,Clear,0,2014-02-23 10:35:00
5:55 AM,39.2,35.6,87,30.07,10.0,Calm,Calm,-,N/A,,Clear,0,2014-02-23 10:55:00
6:15 AM,37.4,35.6,93,30.07,10.0,Calm,Calm,-,N/A,,Clear,0,2014-02-23 11:15:00
6:35 AM,39.2,35.6,87,30.07,10.0,Calm,Calm,-,N/A,,Clear,0,2014-02-23 11:35:00
6:55 AM,41.0,33.8,76,30.07,10.0,Calm,Calm,-,N/A,,Clear,0,2014-02-23 11:55:00
7:15 AM,37.4,35.6,93,30.08,10.0,Calm,Calm,-,N/A,,Clear,0,2014-02-23 12:15:00
7:35 AM,37.4,35.6,93,30.08,10.0,WSW,3.5,-,N/A,,Clear,240,2014-02-23 12:35:00
7:55 AM,37.4,35.6,93,30.07,10.0,Calm,Calm,-,N/A,,Clear,0,2014-02-23 12:55:00
8:15 AM,41.0,37.4,87,30.07,10.0,Calm,Calm,-,N/A,,Clear,0,2014-02-23 13:15:00
8:35 AM,41.0,37.4,87,30.07,10.0,Calm,Calm,-,N/A,,Clear,0,2014-02-23 13:35:00
8:55 AM,44.6,37.4,76,30.07,10.0,Calm,Calm,-,N/A,,Clear,0,2014-02-23 13:55:00
9:15 AM,46.4,35.6,66,30.07,10.0,Calm,Calm,-,N/A,,Clear,0,2014-02-23 14:15:00
9:35 AM,50.0,35.6,58,30.06,10.0,Calm,Calm,-,N/A,,Clear,0,2014-02-23 14:35:00
9:55 AM,50.0,37.4,62,30.06,10.0,Calm,Calm,-,N/A,,Clear,0,2014-02-23 14:55:00
10:15 AM,51.8,35.6,54,30.07,10.0,Calm,Calm,-,N/A,,Clear,0,2014-02-23 15:15:00
10:35 AM,53.6,35.6,51,30.07,10.0,Calm,Calm,-,N/A,,Clear,0,2014-02-23 15:35:00
10:55 AM,53.6,35.6,51,30.06,10.0,SW,3.5,-,N/A,,Clear,230,2014-02-23 15:55:00
11:15 AM,55.4,35.6,47,30.06,10.0,Calm,Calm,-,N/A,,Clear,0,2014-02-23 16:15:00
11:35 AM,57.2,37.4,48,30.05,10.0,SW,3.5,-,N/A,,Clear,230,2014-02-23 16:35:00
11:55 AM,60.8,37.4,42,30.06,10.0,SW,5.8,-,N/A,,Clear,220,2014-02-23 16:55:00
12:15 PM,60.8,35.6,39,30.05,10.0,SW,8.1,-,N/A,,Clear,230,2014-02-23 17:15:00
12:35 PM,62.6,35.6,37,30.04,10.0,SW,8.1,-,N/A,,Clear,230,2014-02-23 17:35:00
12:55 PM,64.4,33.8,32,30.02,10.0,SW,6.9,-,N/A,,Clear,220,2014-02-23 17:55:00
1:15 PM,68.0,32.0,26,30.01,10.0,SW,11.5,-,N/A,,Clear,230,2014-02-23 18:15:00
1:35 PM,68.0,32.0,26,29.99,10.0,WSW,5.8,-,N/A,,Clear,240,2014-02-23 18:35:00
1:55 PM,68.0,32.0,26,29.98,10.0,South,4.6,-,N/A,,Clear,180,2014-02-23 18:55:00
2:15 PM,69.8,32.0,25,29.97,10.0,SW,6.9,-,N/A,,Clear,220,2014-02-23 19:15:00
2:35 PM,69.8,32.0,25,29.96,10.0,SSW,5.8,-,N/A,,Clear,200,2014-02-23 19:35:00
2:55 PM,69.8,32.0,25,29.95,10.0,SSW,4.6,-,N/A,,Clear,200,2014-02-23 19:55:00
3:35 PM,71.6,30.2,22,29.95,10.0,SSW,8.1,16.1,N/A,,Clear,210,2014-02-23 20:35:00
3:55 PM,69.8,30.2,23,29.94,10.0,WSW,10.4,-,N/A,,Clear,240,2014-02-23 20:55:00
4:15 PM,71.6,30.2,22,29.94,10.0,SW,9.2,-,N/A,,Clear,220,2014-02-23 21:15:00
4:35 PM,71.6,30.2,22,29.94,10.0,SW,9.2,-,N/A,,Clear,230,2014-02-23 21:35:00
4:55 PM,71.6,30.2,22,29.93,10.0,SW,8.1,-,N/A,,Clear,220,2014-02-23 21:55:00
5:15 PM,69.8,32.0,25,29.91,10.0,SW,6.9,-,N/A,,Clear,220,2014-02-23 22:15:00
5:35 PM,69.8,32.0,25,29.91,10.0,SSW,6.9,16.1,N/A,,Clear,210,2014-02-23 22:35:00
5:55 PM,68.0,32.0,26,29.91,10.0,SSW,4.6,-,N/A,,Clear,200,2014-02-23 22:55:00
6:15 PM,66.2,32.0,28,29.91,10.0,SSW,4.6,-,N/A,,Clear,200,2014-02-23 23:15:00
6:35 PM,64.4,32.0,30,29.92,10.0,SW,5.8,-,N/A,,Clear,220,2014-02-23 23:35:00
6:55 PM,64.4,32.0,30,29.92,10.0,SW,6.9,-,N/A,,Clear,220,2014-02-23 23:55:00
7:15 PM,62.6,33.8,34,29.92,10.0,SSW,4.6,-,N/A,,Clear,210,2014-02-24 00:15:00
7:35 PM,62.6,33.8,34,29.92,10.0,SW,4.6,-,N/A,,Clear,230,2014-02-24 00:35:00
7:55 PM,60.8,33.8,36,29.93,10.0,WSW,3.5,-,N/A,,Clear,240,2014-02-24 00:55:00
8:15 PM,60.8,33.8,36,29.93,10.0,Calm,Calm,-,N/A,,Clear,0,2014-02-24 01:15:00
8:35 PM,59.0,35.6,42,29.93,10.0,SSW,3.5,-,N/A,,Clear,210,2014-02-24 01:35:00
8:55 PM,59.0,37.4,45,29.93,10.0,SSW,4.6,-,N/A,,Clear,210,2014-02-24 01:55:00
9:15 PM,59.0,41.0,51,29.93,10.0,SSW,3.5,-,N/A,,Clear,200,2014-02-24 02:15:00
9:35 PM,57.2,41.0,55,29.92,10.0,SSW,4.6,-,N/A,,Clear,210,2014-02-24 02:35:00
9:55 PM,55.4,42.8,63,29.92,10.0,SW,4.6,-,N/A,,Clear,220,2014-02-24 02:55:00
10:15 PM,55.4,42.8,63,29.93,10.0,SW,5.8,-,N/A,,Clear,230,2014-02-24 03:15:00
10:35 PM,55.4,42.8,63,29.93,10.0,SW,3.5,-,N/A,,Clear,220,2014-02-24 03:35:00
10:55 PM,53.6,42.8,67,29.93,10.0,WSW,3.5,-,N/A,,Clear,250,2014-02-24 03:55:00
11:15 PM,53.6,42.8,67,29.93,10.0,West,3.5,-,N/A,,Clear,270,2014-02-24 04:15:00
11:35 PM,51.8,42.8,71,29.93,10.0,West,4.6,-,N/A,,Clear,260,2014-02-24 04:35:00
11:55 PM,50.0,42.8,76,29.93,10.0,West,4.6,-,N/A,,Clear,260,2014-02-24 04:55:00